This is the latest recevied weather packets stored in our database for station/object W4ZHA. If no packets are shown the sender has not sent any weather packets the latest 10 day(s).
| Time | Temp. | Humidity | Pressure | Rain* | Wind** | Luminosity | Snow |
|---|---|---|---|---|---|---|---|
| 1777560659 | 17.22° C | 59% | 1014.4 hPa | 0 mm | - | 86 W/m² | - |
| 1777560357 | 17.22° C | 61% | 1014.4 hPa | 0 mm | - | 75 W/m² | - |
| 1777560055 | 17.78° C | 63% | 1014.4 hPa | 0 mm | - | 71 W/m² | - |
| 1777559750 | 17.22° C | 61% | 1014.4 hPa | 0 mm | - | 108 W/m² | - |
| 1777559447 | 16.67° C | 62% | 1014.4 hPa | 0 mm | - | 106 W/m² | - |
| 1777559145 | 16.67° C | 62% | 1014.4 hPa | 0 mm | - | 46 W/m² | - |
| 1777558845 | 16.67° C | 62% | 1014.1 hPa | 0 mm | - | 43 W/m² | - |
| 1777558540 | 16.67° C | 64% | 1014.4 hPa | 0 mm | - | 43 W/m² | - |
| 1777558237 | 16.67° C | 64% | 1014.4 hPa | 0 mm | - | 125 W/m² | - |
| 1777557933 | 16.67° C | 64% | 1014.1 hPa | 0 mm | - | 54 W/m² | - |
| 1777557630 | 16.67° C | 64% | 1014.4 hPa | 0 mm | - | 81 W/m² | - |
| 1777557326 | 16.11° C | 64% | 1014.4 hPa | 0 mm | - | 41 W/m² | - |
| 1777557022 | 16.11° C | 64% | 1014.4 hPa | 0 mm | - | 49 W/m² | - |
| 1777556718 | 16.11° C | 64% | 1014.4 hPa | 0 mm | - | 107 W/m² | - |
| 1777556414 | 16.11° C | 65% | 1014.4 hPa | 0 mm | - | 103 W/m² | - |
| 1777556109 | 16.11° C | 65% | 1014.4 hPa | 0 mm | - | 40 W/m² | - |
| 1777555804 | 16.11° C | 65% | 1014.4 hPa | 0 mm | - | 37 W/m² | - |
| 1777555500 | 15.56° C | 66% | 1014.1 hPa | 0 mm | - | 53 W/m² | - |
| 1777555196 | 15.56° C | 66% | 1014.1 hPa | 0 mm | - | 37 W/m² | - |
| 1777554894 | 15.56° C | 66% | 1014.1 hPa | 0 mm | - | 36 W/m² | - |
| 1777554591 | 15° C | 66% | 1014.1 hPa | 0 mm | - | 41 W/m² | - |
| 1777554287 | 15° C | 67% | 1014.1 hPa | 0 mm | - | 38 W/m² | - |
| 1777553985 | 15° C | 66% | 1014.1 hPa | 0 mm | - | 36 W/m² | - |
| 1777553681 | 15° C | 66% | 1013.8 hPa | 0 mm | - | 42 W/m² | - |
| 1777553378 | 14.44° C | 68% | 1013.8 hPa | 0 mm | - | 50 W/m² | - |
* Rain latest hour (hover to see other rain measurements)
** Current wind speed in m/s (hover to see current wind gust speed)